GW5324 Weather Reports


Display with metric or nautical units.
time (UTC)temp
F
wind
direction
speed
MPH
gust
MPH
rain 1hr
in
rain 24hr
in
rain mn
in
humidity
%
barometer
mb
20260505183032 0 0.0 0.0 0.00 0.00 0.00 1017.1
20260505181529 0 0.0 0.0 0.00 0.00 0.00 1017.1
20260505180027 59 252 2.0 6.0 0.00 0.00 0.00 73 1017.1
20260505174539 0 0.0 0.0 0.00 0.00 0.00 1016.9
20260505173030 0 0.0 0.0 0.00 0.00 0.00 1016.8
20260505171529 0 0.0 0.0 0.00 0.00 0.00 1016.8
20260505170030 0 0.0 0.0 0.00 0.00 0.00 1016.7
20260505164528 57 0.0 0.0 0.00 0.00 0.00 1016.6
20260505163021 57 232 1.0 4.0 0.00 0.00 0.00 77 1016.7
20260505161533 0 0.0 0.0 0.00 0.00 0.00 77 1016.5
20260505153029 0 0.0 0.0 0.00 0.00 0.00 1016.5
20260505151529 56 219 3.0 7.0 0.00 0.00 0.00 81 1016.4
20260505124535 55 199 4.0 6.0 0.00 0.00 0.00 80 1015.4
20260505123030 55 190 0.0 2.0 0.00 0.00 0.00 80 1015.4
20260505121531 55 190 2.0 4.0 0.00 0.00 0.00 80 1015.4
20260505120030 55 179 3.0 4.0 0.00 0.00 0.00 79 1015.3
20260505114529 55 192 2.0 4.0 0.00 0.00 0.00 79 1015.3
20260505113026 56 234 2.0 4.0 0.00 0.00 0.00 79 1015.1
20260505111522 56 304 1.0 2.0 0.00 0.00 0.00 79 1015.2
20260505101512 55 194 3.0 5.0 0.00 0.00 0.00 80 1014.7
20260505100004 55 329 0.0 2.0 0.00 0.00 0.00 82 1014.7
20260505094504 55 329 0.0 2.0 0.00 0.00 0.00 82 1014.6
20260505093006 56 330 0.0 2.0 0.00 0.00 0.00 81 1014.6
20260505091528 56 329 0.0 2.0 0.00 0.00 0.00 81 1014.6
20260505090036 56 329 0.0 2.0 0.00 0.00 0.00 81 1014.3
20260505084505 56 330 0.0 2.0 0.00 0.00 0.00 81 1014.2
20260505083013 56 329 2.0 4.0 0.00 0.00 0.00 80 1014.3
20260505081509 56 310 3.0 4.0 0.00 0.00 0.00 80 1014.1
20260505080016 57 315 3.0 5.0 0.00 0.00 0.00 79 1014.1
20260505074529 57 316 2.0 6.0 0.00 0.00 0.00 78 1014.1
20260505073009 58 340 3.0 4.0 0.00 0.00 0.00 77 1013.6
20260505071544 59 309 0.0 5.0 0.00 0.00 0.00 75 1013.4
20260505070016 60 178 2.0 5.0 0.00 0.00 0.00 74 1013.4
20260505064524 60 315 1.0 2.0 0.00 0.00 0.00 73 1013.1
20260505063028 61 315 1.0 2.0 0.00 0.00 0.00 72 1013.0
20260505061510 61 321 1.0 5.0 0.00 0.00 0.00 70 1012.7
20260505060012 62 315 2.0 3.0 0.00 0.00 0.00 69 1012.5
20260505054517 63 320 4.0 5.0 0.00 0.00 0.00 67 1012.3
20260505053029 64 281 1.0 4.0 0.00 0.00 0.00 66 1012.2
20260505051507 65 298 1.0 4.0 0.00 0.00 0.00 66 1012.2
20260505041521 69 319 3.0 7.0 0.00 0.00 0.00 64 1011.3
20260505040007 69 271 2.0 9.0 0.00 0.00 0.00 66 1011.0
20260505034532 69 180 4.0 6.0 0.00 0.00 0.00 65 1010.6
20260505033033 70 233 2.0 6.0 0.00 0.00 0.00 65 1010.6
20260505031524 70 194 4.0 10.0 0.00 0.00 0.00 63 1010.4
20260505030027 71 190 3.0 7.0 0.00 0.00 0.00 62 1010.2
20260505024528 71 202 6.0 11.0 0.00 0.00 0.00 60 1010.0
20260505023019 72 189 6.0 9.0 0.00 0.00 0.00 59 1010.1
20260505021528 73 211 5.0 8.0 0.00 0.00 0.00 58 1010.0
20260505020004 73 206 5.0 11.0 0.00 0.00 0.00 57 1010.1
20260505014508 73 165 6.0 10.0 0.00 0.00 0.00 57 1009.8
20260505013030 74 186 4.0 7.0 0.00 0.00 0.00 56 1010.1
20260505011520 74 226 6.0 10.0 0.00 0.00 0.00 54 1010.3
20260505010004 74 206 5.0 11.0 0.00 0.00 0.00 53 1010.4
20260505004509 75 178 5.0 14.0 0.00 0.00 0.00 53 1010.4
20260505003012 75 161 4.0 11.0 0.00 0.00 0.00 53 1010.5
20260505001530 75 240 5.0 11.0 0.00 0.00 0.00 52 1010.6
20260505000034 74 290 5.0 11.0 0.00 0.00 0.00 52 1010.7
20260504234531 75 188 2.0 11.0 0.00 0.00 0.00 51 1010.8
20260504233028 74 216 4.0 8.0 0.00 0.00 0.00 51 1010.7
20260504231526 74 155 5.0 9.0 0.00 0.00 0.00 52 1011.0
20260504230028 73 217 6.0 9.0 0.00 0.00 0.00 52 1011.1
20260504224528 73 220 3.0 10.0 0.00 0.00 0.00 53 1011.4
20260504223025 73 188 2.0 10.0 0.00 0.00 0.00 54 1011.5
20260504221530 72 175 6.0 9.0 0.00 0.00 0.00 55 1011.5
20260504220029 71 225 5.0 14.0 0.00 0.00 0.00 56 1011.8
20260504214521 72 165 6.0 10.0 0.00 0.00 0.00 55 1012.0
20260504213034 70 152 4.0 9.0 0.00 0.00 0.00 55 1012.3
20260504211511 71 157 4.0 9.0 0.00 0.00 0.00 57 1012.1
20260504210018 69 126 5.0 11.0 0.00 0.00 0.00 59 1012.7
20260504204520 67 196 4.0 12.0 0.00 0.00 0.00 61 1012.8
20260504203026 67 256 8.0 11.0 0.00 0.00 0.00 61 1013.2
20260504201530 67 159 5.0 7.0 0.00 0.00 0.00 61 1013.1
20260504200037 66 210 3.0 8.0 0.00 0.00 0.00 63 1013.3
20260504194530 65 203 4.0 9.0 0.00 0.00 0.00 65 1013.5
20260504193030 63 246 2.0 10.0 0.00 0.00 0.00 67 1013.5
20260504191546 63 292 2.0 10.0 0.00 0.00 0.00 67 1013.7
20260504190027 62 219 5.0 11.0 0.00 0.00 0.00 68 1013.9
20260504184516 62 161 3.0 11.0 0.00 0.00 0.00 70 1013.9